Temperature
15 15 15 15 16 16 16 16 16 16 16 16 16 16 16 16 16 16 16 16 16 16 15 15 15 15 15 15 15 15 15 15 15 15 15 15 15 15 15 15 15 15 15
15 15 15 15 15 15 16 16 16 16 16 16 16 16 16 16 16 16 16 16 16 16 16 15 15 15 15 15 15 15 15 15 15 15 15 15 15 15 15 15 15 14 15
15 15 15 15 15 15 15 15 15 15 15 16 16 16 16 15 15 15 15 15 15 15 15 15 15 15 15 15 15 15 15 15 15 15 15 14 14 15 15 14 14 15 15
14 14 15 15 15 15 15 15 15 15 15 15 15 15 15 15 15 15 15 15 15 15 15 15 15 15 15 15 15 15 15 15 15 15 14 14 14 14 14 14 14 14 14
14 14 14 15 15 15 15 15 15 15 15 15 15 15 15 15 15 15 15 15 15 15 15 15 15 15 15 15 15 15 15 15 15 14 14 14 14 14 14 14 14 14 14
14 14 14 14 15 15 15 15 15 15 15 15 15 15 15 15 15 15 15 15 15 15 15 15 15 15 15 15 14 14 15 15 14 14 13 13 13 14 14 14 14 14 14
13 13 14 14 14 14 14 15 15 15 15 15 15 15 15 15 15 15 14 15 15 14 14 14 15 14 14 14 14 14 14 14 13 13 13 13 13 14 14 14 14 14 14
13 13 13 14 14 14 14 14 14 14 14 15 15 14 14 14 14 14 14 14 14 14 14 14 14 14 14 14 14 14 14 14 13 13 13 13 13 13 13 14 14 14 14
13 13 13 13 13 14 14 14 14 14 14 14 14 14 14 14 14 14 14 14 14 14 14 14 14 14 14 14 14 14 14 14 13 13 13 13 13 13 13 13 13 13 13
12 12 12 13 13 13 13 13 14 14 14 14 14 14 14 14 14 14 14 14 14 14 14 14 14 14 14 14 14 14 14 13 13 13 13 13 13 13 13 13 13 13 13
12 12 12 12 12 12 13 13 13 13 13 13 13 13 13 13 13 13 14 14 14 14 14 14 14 13 13 13 13 13 13 13 12 12 12 13 13 13 13 13 13 13 12
12 12 12 12 12 12 12 13 13 13 13 13 13 13 13 13 13 13 13 13 13 13 13 13 13 13 13 13 13 13 13 12 12 12 12 12 12 12 12 12 12 12 12
11 11 11 12 12 12 12 12 12 12 12 12 12 12 13 12 12 13 13 13 13 13 13 13 13 13 12 12 12 12 12 12 12 12 12 12 12 12 12 12 12 12 12
11 11 11 11 11 11 12 12 12 12 12 12 12 12 12 12 12 12 12 12 12 12 13 12 12 12 12 12 12 12 12 12 12 12 12 12 12 12 12 11 11 11 11
11 11 11 11 11 11 11 11 11 12 12 12 12 12 12 12 12 12 12 12 12 12 12 12 12 12 12 12 12 12 12 11 11 11 11 11 11 11 11 11 11 11 11
11 11 11 11 11 11 11 11 11 11 11 11 11 11 11 12 12 12 12 12 12 12 12 12 12 12 12 11 11 11 11 11 11 11 11 11 11 11 11 11 10 10 10
10 10 10 10 10 10 10 11 11 11 11 11 11 11 11 11 11 11 11 11 11 12 12 11 11 11 11 11 11 11 11 10 10 10 10 10 10 10 10 10 10 10 10
10 10 10 10 10 10 10 10 10 10 10 10 10 11 11 11 11 11 11 11 11 11 11 11 11 11 11 11 10 10 10 10 10 10 10 10 10 10 10 10 10 10 10
10 10 10 10 10 10 10 10 10 10 10 10 10 10 11 11 11 11 11 11 11 11 11 11 11 10 10 10 10 10 10 9 9 9 9 9 9 9 9 9 9 9 9
9 10 10 9 9 9 9 9 9 9 10 10 10 10 10 10 10 10 10 10 10 10 10 10 10 10 10 10 9 9 9 9 9 9 9 9 9 9 9 9 9 9 9
9 9 9 9 9 9 9 9 9 9 9 9 9 9 9 9 10 10 10 10 10 10 10 10 10 10 9 9 9 8 8 8 8 8 8 8 8 8 8 8 8 8 8
9 9 9 9 9 9 9 9 9 9 9 9 9 9 9 9 9 9 9 9 9 9 9 9 9 9 9 9 8 7 7 7 7 8 8 8 8 8 8 8 8 8 8
9 9 9 9 9 8 9 9 8 8 8 9 9 9 9 9 9 9 9 9 9 9 9 9 9 9 8 8 8 7 7 8 6 7 7 7 7 7 7 7 7 7 7
9 9 9 8 8 8 8 8 8 8 8 8 8 8 9 9 9 8 8 8 8 8 8 8 8 8 8 8 7 7 7 7 6 6 6 7 7 7 7 7 7 7 7
9 9 9 8 8 8 8 8 8 8 8 8 8 8 8 8 8 8 8 8 8 8 8 8 8 8 7 7 7 7 7 7 6 6 6 6 6 6 6 6 6 6 6
8 8 8 8 8 8 8 8 8 8 8 8 7 7 8 8 8 7 7 7 7 7 7 7 7 7 7 7 7 7 6 6 6 5 5 5 5 5 6 6 6 6 6
Wind_Speed
3 4 6 5 6 7 8 8 8 8 9 10 10 9 10 9 9 9 9 9 9 8 8 9 9 9 9 10 10 10 10 10 9 9 9 9 8 8 8 6 4 7 8
4 5 7 6 6 7 8 8 8 7 8 9 9 9 9 9 9 8 8 8 8 8 9 8 8 8 9 9 9 9 9 9 8 8 7 7 7 6 6 5 6 6 6
5 6 7 6 6 7 8 8 8 8 8 9 9 9 8 8 8 8 8 8 8 8 8 8 8 8 8 8 8 8 8 7 7 5 3 4 6 6 5 5 5 6 6
5 5 6 6 5 6 7 8 8 8 8 8 8 8 8 8 8 8 7 7 8 8 8 8 8 8 8 7 7 7 7 6 6 2 3 4 5 6 5 5 5 5 5
4 5 6 6 5 5 6 7 8 8 8 7 7 8 8 8 7 7 7 7 7 7 7 8 8 7 7 6 6 6 6 6 4 2 4 3 4 5 4 5 6 6 5
4 4 6 6 5 5 5 6 7 7 7 7 7 7 7 7 7 7 6 7 7 7 7 7 7 7 7 6 6 6 6 5 4 4 3 3 4 5 4 4 5 5 4
4 4 5 5 5 5 5 5 6 7 7 7 6 6 7 7 7 7 6 6 6 6 6 7 7 6 6 6 6 6 5 3 2 3 3 3 4 4 4 4 3 4 4
4 4 5 6 5 5 4 4 5 6 6 7 7 6 6 7 7 7 7 6 6 6 6 6 6 6 6 6 6 6 5 2 3 3 3 3 4 3 3 3 4 3 3
3 4 4 5 5 5 5 4 4 5 6 7 7 6 6 6 7 7 7 7 6 6 6 6 6 5 6 6 6 6 5 2 2 3 2 3 4 4 4 4 4 4 5
3 4 4 4 4 4 5 4 4 5 6 7 7 6 6 5 6 6 7 7 6 6 6 6 6 6 6 6 6 5 4 2 2 2 2 3 3 3 3 4 4 4 4
3 3 3 3 4 4 4 4 4 5 7 7 7 6 4 4 5 6 6 6 6 6 6 6 6 6 6 6 5 4 3 1 2 2 2 3 2 3 4 4 4 4 4
3 3 3 3 3 4 4 4 3 4 5 6 6 6 4 3 3 5 7 7 6 5 6 6 6 5 3 3 4 3 1 1 1 1 3 4 3 4 4 5 5 4 5
4 3 3 3 4 4 3 3 3 2 3 5 6 6 4 3 3 3 4 5 5 5 4 5 4 3 2 2 2 2 1 1 1 2 3 4 4 4 4 5 5 5 5
5 4 3 3 3 4 4 3 3 3 3 4 5 6 5 2 2 2 3 3 3 3 3 3 2 2 2 2 2 2 2 2 2 2 5 6 4 4 4 4 5 5 5
5 4 4 4 4 4 4 3 3 3 3 3 5 5 5 3 3 2 2 3 3 3 3 2 2 2 2 2 2 2 2 2 2 2 4 6 6 5 5 4 4 4 4
6 5 4 4 4 4 4 4 4 4 3 4 4 5 5 4 3 3 2 2 3 2 2 2 2 2 1 1 2 2 2 2 2 2 3 5 6 5 4 4 3 3 3
5 5 4 5 4 5 5 5 3 4 3 3 3 4 5 4 4 3 3 2 2 3 3 2 2 2 2 2 2 2 2 2 2 2 2 2 3 5 5 4 4 3 3
5 5 4 4 4 4 4 4 4 4 4 3 3 3 4 4 5 4 3 2 2 3 3 2 2 2 2 2 2 1 1 1 1 2 2 1 1 2 3 4 4 4 3
5 5 4 4 5 4 4 3 3 3 3 3 3 2 3 4 5 4 3 3 2 2 2 3 3 2 3 2 2 1 1 1 1 1 1 1 1 1 1 2 3 4 4
4 4 4 4 4 4 4 3 3 3 3 3 3 3 4 3 4 4 3 3 3 2 2 3 3 3 2 2 2 1 1 1 1 1 1 1 1 1 0 0 0 1 3
3 4 5 5 4 4 4 4 3 3 3 3 3 3 4 4 4 3 3 3 3 3 3 3 3 3 3 2 2 1 1 2 2 1 1 1 1 0 1 1 1 2 2
4 4 5 5 5 4 4 3 2 3 2 2 3 3 3 4 4 3 3 3 3 3 4 4 4 3 2 2 2 2 2 3 2 2 2 2 1 1 1 2 2 2 2
4 4 4 5 5 4 4 4 3 2 2 2 2 2 2 3 3 3 3 3 3 4 3 4 4 4 3 2 2 2 2 2 1 3 3 3 2 2 2 2 3 3 4
3 3 4 4 4 4 4 5 6 4 3 2 2 2 2 2 2 3 3 4 4 3 4 4 4 4 5 4 3 2 2 1 2 2 3 3 3 4 4 3 4 4 4
2 3 3 4 4 4 4 5 5 4 3 2 2 3 2 2 2 3 3 3 3 3 3 4 4 4 4 4 3 3 2 2 4 3 4 4 4 4 4 4 4 4 5
1 2 3 3 3 3 4 4 5 5 4 3 3 3 2 2 2 3 3 3 3 3 4 4 4 4 4 4 4 4 3 3 4 4 5 5 5 4 4 4 5 5 5
Wind_Direction
133 128 119 127 131 132 131 129 126 130 133 133 130 128 127 127 124 123 120 116 113 113 116 114 110 107 102 99 96 92 90 86 82 81 78 75 73 75 75 69 68 87 82
134 133 122 121 126 132 131 129 129 129 134 135 134 131 128 126 129 127 122 119 115 111 112 115 112 109 103 100 98 96 92 88 84 83 87 95 85 77 77 64 43 66 77
131 130 125 115 121 129 130 129 130 131 133 137 136 134 131 127 125 125 122 120 116 111 108 105 107 109 106 103 100 99 95 91 89 91 123 106 98 86 82 76 68 72 72
133 131 123 110 118 126 131 133 132 131 129 134 138 137 135 132 127 123 123 121 116 112 109 108 103 103 108 106 103 101 98 99 98 125 110 88 94 88 83 82 77 75 69
137 133 119 111 110 119 131 138 138 134 133 134 138 140 139 136 132 126 122 119 117 116 114 112 109 105 104 108 110 108 105 108 123 147 94 91 90 89 84 83 75 75 70
145 134 122 117 108 112 126 139 145 143 140 138 138 142 140 136 130 125 122 116 114 115 117 117 114 108 106 104 108 111 111 122 170 116 104 95 84 83 85 82 74 72 69
153 138 134 126 119 115 118 138 147 150 149 143 142 141 142 136 130 126 120 116 116 119 124 125 120 114 111 107 100 102 112 132 134 111 100 94 75 67 84 81 76 70 67
165 152 145 139 127 122 122 126 145 148 148 146 141 142 136 135 129 127 126 122 119 118 120 124 121 117 112 107 101 96 98 148 138 113 104 93 65 70 76 75 70 64 68
170 161 155 156 142 130 125 125 136 140 140 136 128 118 119 127 130 129 128 126 122 117 117 116 117 120 116 110 105 101 97 108 139 113 107 87 68 74 73 76 68 70 67
181 177 165 162 159 152 142 129 129 138 138 137 127 115 104 110 128 128 132 126 123 120 115 115 113 108 110 109 110 110 119 172 103 128 118 87 77 87 79 76 71 63 60
201 195 179 175 167 163 158 138 137 143 144 146 138 125 134 143 147 143 127 122 120 118 118 116 114 110 110 107 106 122 160 153 115 70 74 71 98 98 87 79 74 63 57
217 219 200 189 181 174 163 153 150 165 167 166 157 153 162 164 146 142 129 122 120 122 124 117 119 129 144 124 118 145 151 149 115 83 59 53 93 98 88 79 78 71 68
219 218 213 203 192 183 170 162 153 155 170 171 165 161 157 162 156 149 147 142 142 148 143 136 149 140 131 109 118 120 92 86 82 78 64 58 69 88 89 81 77 78 69
219 220 225 209 203 191 180 174 171 160 172 175 171 171 163 162 175 158 161 158 159 158 150 155 149 141 134 126 115 108 111 105 91 81 65 61 64 65 76 81 79 78 70
221 219 226 215 209 196 186 185 180 173 181 177 173 175 170 171 184 162 160 165 165 161 162 161 160 151 147 129 110 104 101 103 114 118 94 71 58 62 59 66 78 75 68
225 222 223 223 210 202 197 194 187 180 177 182 168 173 174 177 178 170 155 168 166 165 159 165 155 156 154 142 133 122 114 109 118 126 124 98 78 66 59 55 61 66 59
226 223 223 220 206 206 202 199 190 184 183 186 166 165 176 177 172 166 165 169 172 168 168 157 144 150 144 140 138 122 111 109 116 123 131 124 106 82 65 51 44 50 55
228 214 212 219 204 204 197 192 189 189 182 179 166 172 171 173 163 165 166 169 175 176 172 165 161 156 150 147 135 124 127 119 108 102 124 133 119 110 86 56 49 43 38
225 211 198 213 203 193 185 178 182 173 171 161 157 168 164 168 165 167 166 165 171 184 176 170 170 168 157 144 133 132 147 154 124 105 98 110 111 103 109 92 66 43 24
219 207 193 201 191 176 165 161 161 156 160 155 159 161 153 162 167 162 162 163 170 180 178 176 164 159 152 146 138 133 150 171 172 158 130 113 120 121 137 208 228 44 21
214 199 188 192 186 177 166 167 167 170 167 169 169 167 162 158 154 164 167 168 176 186 184 173 158 153 151 149 158 162 183 188 196 208 208 179 134 207 248 264 275 285 280
209 201 186 190 187 185 174 166 173 166 174 171 168 167 168 162 156 170 177 175 181 187 183 179 170 170 167 195 209 198 213 211 201 216 226 228 235 251 268 271 266 276 283
203 204 193 188 185 182 166 152 139 143 145 149 159 163 162 157 160 168 183 184 186 195 191 190 186 189 190 201 220 232 236 234 228 214 229 232 238 248 262 285 283 273 276
206 200 194 183 178 177 168 166 167 175 184 189 175 163 151 150 160 171 184 190 189 195 195 196 202 200 195 201 201 231 269 288 247 236 223 231 248 257 260 260 267 274 267
196 191 182 172 167 170 180 177 178 182 178 154 158 159 154 150 172 175 183 190 190 194 196 195 200 206 205 206 208 210 219 234 251 248 257 255 252 251 255 258 261 268 271
169 173 168 165 169 178 185 185 183 180 165 163 178 177 179 171 174 178 182 191 195 192 195 196 200 208 212 209 209 214 218 225 231 239 252 258 265 264 259 255 253 259 270
Height
1525 1526 1527 1528 1529 1530 1531 1532 1533 1533 1534 1535 1535 1535 1536 1536 1536 1537 1537 1537 1538 1538 1538 1538 1539 1539 1539 1539 1539 1539 1539 1539 1539 1539 1540 1540 1540 1540 1540 1540 1540 1540 1540
1524 1525 1526 1527 1529 1530 1531 1532 1533 1533 1534 1534 1535 1535 1536 1536 1536 1537 1537 1537 1538 1538 1538 1538 1539 1539 1539 1539 1539 1539 1539 1540 1540 1540 1540 1540 1541 1541 1540 1540 1540 1541 1540
1524 1525 1526 1527 1528 1530 1531 1532 1533 1533 1534 1534 1535 1535 1536 1536 1536 1537 1537 1538 1538 1538 1538 1538 1539 1539 1539 1539 1539 1539 1540 1540 1540 1540 1541 1542 1541 1541 1541 1541 1541 1541 1541
1524 1525 1526 1527 1528 1529 1530 1531 1532 1533 1533 1534 1534 1535 1535 1536 1536 1536 1537 1537 1538 1538 1538 1538 1538 1539 1539 1539 1539 1539 1540 1540 1540 1541 1542 1542 1542 1541 1541 1541 1541 1541 1541
1524 1525 1525 1526 1527 1528 1529 1530 1531 1532 1532 1533 1534 1534 1535 1535 1536 1536 1536 1537 1537 1537 1538 1538 1538 1538 1539 1539 1539 1539 1540 1540 1540 1541 1541 1542 1542 1541 1541 1541 1541 1541 1541
1523 1524 1525 1526 1526 1527 1528 1529 1530 1531 1531 1532 1533 1533 1534 1534 1535 1535 1536 1536 1537 1537 1537 1538 1538 1538 1538 1539 1539 1539 1539 1540 1541 1541 1542 1542 1541 1541 1541 1541 1541 1541 1541
1522 1523 1524 1525 1525 1526 1527 1528 1529 1529 1530 1531 1532 1532 1533 1533 1534 1534 1535 1536 1536 1536 1537 1537 1538 1538 1538 1538 1539 1539 1539 1540 1541 1541 1541 1541 1541 1540 1541 1541 1541 1541 1540
1521 1522 1522 1523 1524 1525 1526 1527 1527 1528 1529 1529 1530 1531 1532 1532 1533 1534 1534 1535 1535 1536 1536 1537 1537 1537 1538 1538 1538 1539 1539 1540 1540 1541 1541 1541 1540 1540 1540 1540 1540 1540 1540
1520 1520 1521 1522 1523 1523 1524 1525 1526 1527 1527 1528 1529 1529 1530 1531 1532 1533 1533 1534 1534 1535 1535 1536 1536 1537 1537 1537 1538 1538 1539 1539 1540 1540 1541 1540 1540 1540 1540 1539 1539 1539 1539
1518 1518 1519 1520 1521 1522 1522 1523 1524 1525 1525 1526 1527 1528 1528 1529 1531 1531 1532 1533 1533 1534 1534 1535 1535 1536 1536 1537 1537 1538 1538 1539 1540 1540 1540 1540 1539 1539 1539 1539 1539 1538 1538
1515 1516 1517 1518 1519 1520 1520 1521 1522 1523 1523 1524 1525 1525 1527 1528 1529 1530 1531 1531 1532 1533 1533 1534 1535 1535 1536 1536 1536 1537 1538 1538 1539 1539 1539 1539 1539 1538 1538 1538 1538 1537 1537
1513 1514 1515 1516 1516 1517 1518 1519 1520 1521 1522 1522 1523 1524 1526 1527 1527 1528 1529 1530 1531 1531 1532 1533 1533 1534 1535 1535 1535 1536 1537 1537 1538 1538 1537 1537 1538 1537 1537 1537 1537 1536 1536
1511 1512 1512 1513 1514 1515 1516 1516 1518 1518 1519 1520 1521 1523 1524 1525 1526 1527 1528 1528 1529 1530 1531 1531 1532 1533 1534 1534 1534 1535 1535 1536 1536 1536 1536 1536 1536 1536 1536 1536 1535 1535 1535
1509 1509 1510 1511 1512 1513 1513 1514 1515 1516 1517 1518 1519 1520 1522 1523 1524 1525 1526 1527 1528 1529 1529 1530 1531 1531 1532 1532 1533 1533 1533 1534 1534 1534 1534 1534 1535 1535 1534 1534 1534 1534 1533
1506 1507 1507 1508 1509 1510 1511 1512 1513 1514 1515 1516 1517 1518 1519 1521 1522 1523 1524 1525 1526 1527 1528 1529 1529 1530 1530 1531 1531 1531 1532 1532 1532 1532 1532 1532 1533 1533 1533 1532 1532 1532 1531
1504 1504 1504 1505 1506 1507 1508 1509 1510 1511 1512 1513 1514 1515 1517 1518 1519 1521 1522 1523 1524 1525 1526 1527 1527 1528 1528 1529 1529 1529 1530 1530 1530 1530 1531 1530 1531 1531 1531 1530 1530 1530 1529
1501 1501 1501 1502 1503 1504 1505 1507 1507 1509 1510 1511 1511 1513 1514 1516 1517 1518 1520 1521 1522 1523 1524 1525 1525 1526 1526 1527 1527 1527 1528 1528 1528 1528 1529 1529 1529 1529 1528 1528 1528 1528 1527
1498 1498 1499 1499 1500 1501 1502 1503 1505 1506 1507 1508 1509 1511 1512 1513 1514 1516 1517 1519 1520 1521 1522 1522 1523 1524 1524 1525 1525 1525 1526 1526 1526 1526 1527 1527 1527 1526 1526 1526 1526 1525 1525
1495 1495 1496 1497 1497 1498 1499 1500 1502 1503 1504 1505 1507 1508 1509 1511 1512 1513 1515 1516 1517 1518 1519 1520 1521 1521 1522 1522 1523 1523 1524 1524 1524 1524 1524 1524 1524 1524 1524 1524 1523 1523 1523
1492 1492 1493 1494 1494 1495 1496 1497 1499 1501 1502 1503 1504 1506 1507 1509 1510 1511 1512 1514 1515 1516 1517 1517 1518 1519 1520 1520 1521 1521 1521 1522 1522 1522 1522 1522 1521 1521 1521 1521 1521 1520 1520
1489 1490 1490 1491 1492 1493 1493 1495 1496 1498 1499 1501 1502 1504 1505 1506 1507 1509 1510 1511 1512 1513 1514 1515 1516 1517 1517 1518 1519 1519 1519 1519 1519 1519 1519 1519 1519 1519 1519 1518 1518 1518 1517
1487 1487 1487 1488 1489 1490 1492 1493 1495 1496 1497 1499 1500 1501 1503 1504 1505 1507 1508 1508 1510 1511 1512 1513 1513 1514 1514 1516 1517 1517 1518 1519 1517 1516 1517 1517 1516 1516 1516 1516 1515 1515 1514
1485 1485 1486 1486 1487 1488 1490 1492 1493 1494 1495 1496 1497 1499 1501 1502 1503 1504 1505 1506 1507 1509 1509 1510 1511 1512 1512 1513 1514 1516 1516 1516 1515 1514 1514 1514 1514 1513 1513 1512 1512 1511 1511
1483 1484 1485 1486 1486 1487 1489 1490 1491 1492 1493 1494 1495 1497 1498 1500 1501 1502 1503 1504 1505 1506 1507 1508 1509 1509 1510 1510 1511 1512 1513 1513 1513 1512 1512 1511 1510 1510 1509 1509 1508 1508 1507
1482 1483 1483 1484 1485 1486 1487 1488 1489 1491 1492 1493 1494 1495 1496 1497 1498 1499 1501 1501 1502 1503 1504 1505 1506 1507 1507 1507 1508 1508 1509 1510 1510 1510 1509 1508 1507 1506 1506 1505 1505 1504 1503
1480 1481 1481 1482 1483 1484 1485 1487 1488 1489 1489 1491 1492 1493 1494 1495 1496 1497 1498 1498 1499 1500 1501 1502 1503 1503 1504 1504 1504 1505 1505 1506 1506 1506 1506 1505 1504 1503 1502 1502 1501 1500 1499